Location: Izdebno
(52.6670°N, 16.2170°E)
Time: 04:52:01
(UTC+02:00)

A-11 Canister half - Pass Details

Date: 17 February 2023
Orbit: 1526 x 1682 km, 47.3° (Epoch: 25 March)

Event Time Altitude Azimuth Distance (km) Brightness Sun altitude
Rises 02:52:38 0° 234° (SW) 4,710 - -38.0°
Reaches altitude 10° 02:55:48 10° 230° (SW) 3,714 - -37.6°
Maximum altitude 03:04:41 51° 158° (SSE) 1,858 - -36.5°
Exits shadow 03:05:09 51° 149° (SSE) 1,866 9.3 -36.4°
Drops below altitude 10° 03:13:31 10° 86° (E) 3,703 11.6 -35.3°
Sets 03:16:40 0° 82° (E) 4,695 12.4 -34.9°
